Wind_Speed
32 31 32 34 35 35 38 42 43 40 39 39 39 46 63 66 56 48 46 40 39 47 52 49 52 50 53 56 56 58 61 62 64 64 62 62 61 61 62 63 62 61 61
28 29 30 32 33 34 36 40 38 36 32 29 30 32 41 56 60 56 56 54 48 48 51 50 52 53 57 56 56 58 59 60 62 64 63 64 62 61 62 63 64 63 61
27 28 29 31 33 32 32 33 32 31 27 25 24 24 30 44 49 52 54 57 59 52 50 49 51 55 61 62 61 59 59 59 56 57 56 55 56 56 57 59 59 61 60
30 31 31 32 33 33 31 30 28 26 24 24 21 19 23 31 38 43 45 48 50 51 51 49 44 45 51 52 52 54 53 52 53 54 55 53 53 54 55 55 56 59 60
33 34 34 33 33 33 32 29 25 23 22 21 15 16 24 30 32 35 39 41 43 48 48 45 40 37 42 45 48 51 51 48 48 51 55 55 56 56 57 56 56 58 60
36 36 36 33 33 33 32 30 25 22 21 20 15 15 20 29 35 34 36 35 36 41 40 36 34 36 39 41 44 46 45 45 47 49 50 53 55 56 58 59 57 57 60
40 40 39 36 34 34 33 31 28 24 21 20 16 18 18 22 32 37 38 35 34 35 34 34 33 37 41 42 43 43 44 45 46 47 47 49 52 55 58 59 56 57 58
42 41 40 39 38 36 35 34 31 27 25 22 19 21 22 19 21 30 35 34 33 32 31 33 36 38 40 41 42 43 43 45 47 49 49 47 47 50 56 58 56 54 51
46 45 44 42 39 37 36 36 34 31 29 27 25 25 26 25 23 25 29 30 31 30 32 33 37 40 39 41 43 44 44 46 48 50 51 50 48 47 48 53 55 54 49
52 50 47 44 41 40 37 37 36 34 32 32 31 30 31 31 30 30 31 33 34 35 36 37 38 40 40 39 40 42 41 42 43 46 48 49 49 49 49 47 48 51 49
56 53 51 48 45 44 41 39 38 37 36 35 36 36 36 36 35 35 35 36 37 37 38 39 40 42 43 42 41 40 40 39 39 42 43 42 44 48 48 46 45 49 48
57 55 53 51 48 47 45 43 42 41 39 38 38 39 40 41 40 40 39 38 39 39 39 39 38 39 41 42 40 40 39 39 39 38 40 42 43 43 45 45 48 51 45
49 48 46 45 46 47 47 46 46 45 44 42 41 41 43 44 45 46 45 44 43 43 43 41 40 40 41 42 41 40 40 41 41 41 40 41 43 42 41 43 44 44 43
47 43 40 38 37 38 40 44 47 49 48 47 45 45 45 46 48 49 50 50 50 49 47 45 44 44 44 44 44 43 42 42 42 43 43 42 42 44 44 45 45 45 45
49 44 39 36 34 33 33 33 37 43 48 50 50 49 49 49 51 52 52 53 54 54 53 52 51 50 49 48 48 47 45 44 43 43 43 41 40 40 40 39 39 39 40
49 45 40 36 35 35 34 33 31 31 35 40 48 52 52 53 55 56 56 56 57 57 56 56 56 56 56 55 53 51 49 47 47 46 45 43 43 43 43 42 42 43 43
49 46 42 39 37 36 34 32 31 29 28 29 32 39 47 54 58 59 58 59 60 60 59 60 60 60 60 59 59 58 55 53 52 52 51 49 48 48 47 46 45 45 44
50 48 46 44 41 38 35 33 30 27 26 26 26 27 32 39 48 55 59 61 63 64 63 63 63 63 63 62 62 63 62 60 58 57 56 56 55 53 53 52 51 50 49
51 50 50 48 45 41 38 35 32 30 28 27 26 25 25 27 32 38 46 54 61 65 66 66 66 65 65 66 66 66 66 65 64 63 62 60 59 59 58 57 56 56 55
55 53 54 52 49 45 41 38 35 33 31 29 28 27 26 25 25 26 30 36 44 53 61 67 69 69 69 69 69 69 69 69 69 68 68 67 65 64 63 62 61 59 58
57 53 53 53 53 49 44 41 38 35 33 32 31 29 27 25 24 24 23 25 28 34 42 51 60 67 70 72 72 71 71 71 71 71 71 71 71 70 68 67 66 65 64
57 53 53 53 52 48 44 40 37 35 34 32 31 30 28 26 24 24 24 22 21 23 27 32 39 47 57 65 71 73 74 74 73 73 72 72 73 73 73 72 71 71 70
59 59 58 58 56 50 45 41 39 37 35 31 28 27 26 25 24 23 23 23 20 18 20 22 25 29 34 43 53 62 69 73 76 76 75 74 73 73 73 73 73 73 72
63 61 60 60 57 52 47 44 42 39 34 30 26 22 21 20 20 21 20 20 19 16 16 18 20 21 23 26 31 39 49 58 66 71 74 75 75 74 73 71 70 69 68
62 59 60 62 60 55 51 48 46 41 36 31 26 20 19 18 16 15 16 17 16 16 15 15 15 17 18 19 21 24 29 36 44 53 61 67 72 75 75 73 71 69 67
62 58 58 60 63 63 59 54 50 46 40 35 30 24 19 16 14 12 12 12 13 12 12 12 12 10 8 8 9 11 14 18 24 31 38 46 53 60 66 70 71 70 68
Wind_Direction
299 299 301 306 304 301 307 310 310 309 301 291 274 255 237 231 228 227 230 241 245 242 237 237 241 246 248 247 247 247 247 246 246 246 247 247 247 247 246 248 248 247 247
302 303 305 309 308 302 311 315 318 317 307 305 287 262 237 227 225 227 232 228 234 240 235 236 238 241 243 242 244 246 246 248 249 247 250 251 250 250 247 247 248 248 247
312 313 311 309 309 304 307 316 318 322 311 305 297 267 233 222 225 229 231 231 235 236 234 239 242 245 239 243 246 246 246 246 244 244 247 246 248 247 247 248 246 245 245
320 317 314 310 307 306 303 311 317 318 317 307 297 269 233 222 230 232 233 237 237 235 236 240 244 244 242 243 243 242 242 240 240 240 241 244 247 248 248 249 247 244 244
321 318 314 310 305 303 303 304 313 313 310 314 292 260 232 226 227 232 236 237 237 234 234 234 236 238 237 230 231 236 237 237 239 241 244 247 248 248 249 248 247 246 246
319 317 314 309 304 300 298 300 301 303 304 304 286 256 239 234 233 229 230 231 233 232 235 235 236 233 230 228 230 233 238 241 245 247 250 250 249 248 249 247 246 247 246
315 314 312 308 303 299 295 294 293 293 294 297 285 246 254 245 233 225 230 237 237 238 233 233 233 231 229 230 232 238 243 247 251 251 251 250 248 246 245 244 244 246 245
315 312 309 305 302 300 295 291 288 284 281 281 272 259 266 265 241 232 228 232 237 234 231 229 228 229 229 233 235 240 243 249 251 250 246 244 246 245 243 244 244 243 239
311 308 306 302 298 296 294 290 285 280 274 270 267 263 262 261 252 240 231 230 227 229 230 229 228 230 232 235 237 240 243 248 249 247 242 241 244 243 242 241 239 236 235
308 305 302 298 293 291 289 286 283 279 272 264 260 258 256 254 252 248 244 240 237 236 235 234 234 235 237 237 239 240 243 247 246 243 239 240 238 241 245 236 228 229 230
306 303 299 295 290 286 284 281 278 274 270 263 257 254 253 252 249 248 245 242 239 238 236 236 238 238 237 235 237 240 243 245 247 242 238 239 235 239 241 227 223 226 226
308 303 297 292 286 282 279 275 272 270 267 262 257 252 250 250 248 247 245 242 239 236 235 236 238 239 238 237 239 242 245 247 249 244 237 235 236 238 236 232 231 230 228
319 314 308 300 291 283 277 272 269 266 263 259 256 252 248 246 246 245 244 243 241 240 239 240 241 242 241 240 241 243 245 244 244 243 241 235 233 234 234 236 234 231 231
334 327 320 315 309 299 288 277 270 265 262 258 255 253 250 247 245 244 242 242 242 241 241 241 242 242 242 242 242 242 242 243 241 239 238 233 231 232 233 233 232 232 232
346 343 337 331 327 321 311 299 285 273 265 260 256 252 251 249 247 245 244 242 241 241 241 241 241 241 241 242 243 242 242 242 242 240 237 232 231 231 230 229 230 231 233
352 351 347 342 339 336 330 322 310 295 281 269 261 255 251 250 249 247 246 245 244 242 242 242 242 241 240 239 240 241 241 241 241 242 239 235 233 233 232 230 231 232 233
355 354 353 350 345 341 336 332 326 317 305 290 276 265 258 253 250 248 248 247 247 245 244 243 242 242 241 239 239 239 238 238 240 241 240 238 237 236 234 233 233 234 235
359 358 356 353 348 344 340 336 333 329 324 316 304 288 274 264 257 252 249 248 248 247 246 245 244 244 243 243 242 241 240 238 238 239 239 239 238 238 238 238 237 237 237
0 0 359 355 350 346 342 339 337 335 332 327 322 314 302 288 274 263 256 251 249 249 248 247 246 245 245 244 244 243 243 242 241 240 240 240 240 240 239 239 240 240 240
359 357 358 357 353 348 344 340 336 332 330 327 323 319 315 309 301 287 274 263 255 251 249 248 247 246 245 245 245 245 244 244 244 243 243 242 241 241 241 241 241 241 242
0 358 356 355 353 349 344 339 335 330 326 321 318 314 313 312 310 307 301 287 273 262 255 251 249 247 246 245 245 245 245 244 244 244 244 244 244 243 243 243 243 244 245
2 0 359 358 355 350 345 341 337 332 326 318 311 307 306 307 309 311 311 307 293 279 270 262 256 251 248 247 246 245 244 245 245 245 245 245 245 245 246 246 246 246 247
5 5 5 2 359 356 353 349 345 339 333 326 318 310 305 303 304 308 311 311 304 292 283 276 269 262 255 250 247 246 245 244 244 244 245 245 246 246 246 246 248 249 250
9 9 9 8 5 3 1 358 355 350 346 340 332 322 314 309 305 307 311 313 310 302 294 287 281 275 268 260 253 248 246 245 245 245 245 245 245 245 246 246 247 248 250
12 14 15 14 15 14 12 9 6 4 1 357 351 342 334 327 319 316 316 315 315 314 309 300 292 285 279 271 262 254 247 244 244 244 244 244 245 245 246 246 246 247 248
15 16 16 18 22 24 23 21 19 18 17 15 13 10 5 2 356 349 343 341 344 345 345 344 339 328 311 288 268 257 251 246 244 243 243 243 244 245 245 246 246 247 247
Height
5511 5508 5505 5500 5494 5489 5483 5476 5468 5459 5450 5444 5440 5440 5450 5464 5477 5487 5491 5498 5499 5503 5510 5516 5521 5527 5531 5538 5544 5549 5555 5560 5567 5571 5575 5582 5588 5593 5597 5601 5605 5610 5615
5503 5499 5495 5490 5484 5479 5473 5465 5457 5448 5440 5434 5428 5426 5432 5445 5458 5469 5475 5482 5482 5488 5494 5499 5505 5511 5518 5523 5528 5533 5538 5544 5550 5555 5559 5564 5570 5575 5580 5585 5589 5593 5599
5496 5491 5486 5481 5475 5470 5465 5458 5450 5441 5434 5429 5424 5421 5424 5433 5444 5453 5460 5467 5472 5476 5481 5486 5491 5494 5501 5506 5512 5517 5523 5528 5533 5539 5543 5546 5551 5558 5563 5567 5572 5578 5584
5488 5483 5478 5472 5467 5462 5457 5451 5443 5436 5430 5426 5422 5420 5422 5428 5436 5443 5449 5455 5459 5463 5468 5474 5478 5482 5486 5491 5497 5502 5508 5513 5519 5524 5528 5532 5537 5543 5547 5551 5556 5561 5567
5481 5475 5469 5464 5458 5453 5448 5443 5437 5432 5426 5422 5419 5418 5420 5422 5427 5433 5438 5442 5446 5451 5457 5462 5464 5469 5474 5478 5483 5490 5495 5500 5505 5510 5514 5518 5523 5528 5532 5536 5541 5545 5550
5473 5467 5461 5455 5450 5444 5440 5435 5431 5426 5422 5418 5416 5415 5416 5418 5420 5422 5428 5431 5435 5440 5444 5447 5452 5457 5462 5465 5471 5478 5483 5488 5493 5496 5498 5502 5508 5512 5516 5520 5525 5530 5535
5464 5457 5451 5445 5440 5435 5431 5426 5423 5419 5415 5412 5410 5410 5411 5411 5413 5416 5420 5423 5426 5429 5432 5436 5441 5446 5451 5455 5461 5466 5470 5475 5479 5481 5484 5487 5492 5496 5501 5505 5509 5514 5520
5453 5447 5441 5435 5429 5424 5420 5416 5413 5410 5407 5405 5405 5405 5404 5404 5405 5407 5410 5413 5416 5419 5422 5426 5431 5435 5440 5445 5450 5454 5458 5462 5465 5467 5471 5475 5478 5481 5486 5491 5495 5500 5506
5440 5434 5428 5422 5417 5412 5408 5404 5401 5400 5398 5396 5396 5396 5396 5395 5396 5398 5401 5403 5405 5409 5412 5416 5420 5424 5430 5434 5439 5443 5446 5449 5451 5453 5456 5460 5465 5468 5471 5476 5482 5487 5493
5425 5419 5412 5407 5403 5399 5395 5391 5389 5387 5386 5386 5385 5385 5385 5386 5387 5390 5391 5393 5395 5398 5402 5405 5409 5414 5418 5421 5426 5430 5433 5436 5438 5440 5442 5446 5451 5455 5459 5463 5468 5474 5481
5408 5401 5395 5390 5386 5382 5380 5377 5374 5372 5372 5372 5372 5372 5373 5374 5376 5378 5380 5382 5384 5387 5390 5394 5397 5402 5407 5410 5414 5418 5421 5423 5425 5427 5430 5434 5438 5444 5448 5452 5457 5463 5470
5389 5381 5375 5370 5367 5363 5361 5359 5357 5355 5356 5356 5357 5358 5359 5360 5362 5364 5366 5369 5372 5375 5378 5382 5387 5391 5394 5398 5402 5405 5408 5411 5414 5416 5419 5423 5428 5433 5438 5443 5447 5453 5459
5374 5364 5356 5350 5346 5343 5341 5340 5337 5337 5337 5339 5340 5342 5343 5345 5346 5349 5351 5355 5358 5362 5365 5369 5373 5376 5380 5384 5388 5392 5395 5399 5402 5406 5409 5412 5417 5422 5427 5433 5437 5442 5449
5363 5353 5344 5336 5330 5325 5321 5320 5319 5317 5318 5319 5321 5323 5325 5327 5329 5331 5334 5338 5342 5346 5349 5354 5358 5362 5365 5369 5374 5379 5383 5386 5390 5394 5398 5401 5405 5410 5415 5421 5426 5432 5438
5356 5345 5336 5328 5321 5315 5309 5304 5301 5298 5298 5300 5301 5303 5306 5309 5310 5313 5315 5319 5322 5328 5332 5337 5342 5346 5350 5355 5360 5364 5368 5372 5377 5382 5386 5390 5394 5399 5404 5409 5415 5421 5427
5353 5342 5332 5323 5315 5308 5301 5294 5288 5284 5282 5280 5281 5283 5286 5289 5290 5292 5296 5302 5304 5308 5313 5318 5323 5327 5333 5338 5343 5348 5353 5358 5363 5368 5373 5378 5383 5388 5394 5399 5404 5411 5416
5352 5341 5330 5320 5312 5304 5296 5289 5281 5275 5269 5266 5265 5264 5265 5266 5268 5272 5277 5281 5283 5288 5294 5297 5302 5307 5313 5319 5325 5331 5336 5342 5348 5354 5359 5365 5371 5376 5382 5387 5393 5399 5405
5351 5339 5328 5318 5309 5300 5291 5283 5276 5269 5263 5257 5253 5250 5248 5247 5249 5252 5255 5258 5261 5265 5272 5277 5282 5287 5292 5298 5305 5311 5318 5324 5331 5337 5343 5350 5356 5362 5368 5373 5379 5385 5391
5351 5339 5327 5315 5305 5295 5286 5278 5270 5263 5256 5250 5245 5241 5237 5234 5232 5232 5233 5236 5239 5242 5247 5254 5260 5266 5271 5277 5284 5290 5297 5304 5311 5319 5325 5332 5339 5345 5351 5358 5364 5370 5377
5349 5335 5323 5312 5301 5290 5280 5271 5263 5256 5249 5243 5238 5233 5228 5224 5221 5218 5217 5217 5219 5221 5225 5230 5236 5243 5250 5256 5262 5269 5276 5283 5290 5298 5305 5312 5320 5326 5333 5340 5347 5354 5360
5348 5335 5323 5310 5296 5284 5273 5264 5256 5248 5241 5235 5229 5225 5221 5217 5213 5210 5207 5205 5204 5205 5206 5209 5214 5220 5226 5233 5240 5247 5254 5261 5269 5276 5284 5291 5299 5306 5314 5322 5328 5335 5342
5348 5335 5321 5307 5293 5280 5268 5258 5249 5240 5232 5226 5220 5215 5212 5209 5206 5203 5200 5197 5195 5194 5194 5195 5197 5200 5205 5210 5217 5224 5232 5239 5246 5254 5262 5270 5278 5285 5293 5300 5308 5315 5322
5348 5332 5317 5303 5289 5276 5264 5252 5242 5232 5223 5216 5211 5206 5203 5201 5199 5197 5195 5192 5189 5187 5186 5185 5186 5187 5188 5191 5196 5202 5209 5217 5225 5232 5240 5248 5256 5264 5272 5279 5287 5294 5302
5346 5332 5318 5304 5289 5274 5261 5250 5238 5227 5217 5210 5204 5199 5196 5194 5193 5191 5189 5186 5184 5182 5180 5179 5178 5178 5178 5180 5182 5185 5190 5195 5202 5210 5218 5227 5235 5243 5251 5260 5268 5275 5282
5351 5337 5323 5309 5293 5277 5263 5250 5238 5226 5216 5207 5201 5195 5192 5189 5187 5187 5185 5183 5180 5178 5176 5174 5172 5170 5170 5171 5172 5174 5177 5180 5185 5190 5196 5204 5212 5220 5229 5239 5247 5255 5263
5357 5343 5330 5316 5301 5285 5270 5256 5244 5231 5219 5210 5202 5196 5191 5188 5186 5184 5183 5181 5178 5175 5173 5170 5168 5166 5165 5164 5165 5166 5169 5171 5174 5178 5182 5186 5192 5199 5207 5216 5225 5234 5243